TimePDT,TemperatureF,Dew PointF,Humidity,Sea Level PressureIn,VisibilityMPH,Wind Direction,Wind SpeedMPH,Gust SpeedMPH,PrecipitationIn,Events,Conditions,WindDirDegrees,DateUTC
12:15 AM,62.6,39.2,42,30.01,10.0,NE,4.6,-,N/A,,Clear,50,2013-07-04 07:15:00
12:35 AM,64.4,39.2,40,30.00,10.0,NE,4.6,-,N/A,,Clear,40,2013-07-04 07:35:00
12:55 AM,62.6,39.2,42,30.00,10.0,Calm,Calm,-,N/A,,Clear,0,2013-07-04 07:55:00
1:15 AM,62.6,39.2,42,30.01,10.0,East,3.5,-,N/A,,Clear,80,2013-07-04 08:15:00
1:35 AM,62.6,39.2,42,30.01,10.0,Calm,Calm,-,N/A,,Clear,0,2013-07-04 08:35:00
1:55 AM,60.8,37.4,42,30.01,10.0,Calm,Calm,-,N/A,,Clear,0,2013-07-04 08:55:00
2:15 AM,62.6,37.4,39,30.01,10.0,WSW,3.5,-,N/A,,Clear,250,2013-07-04 09:15:00
2:35 AM,60.8,37.4,42,30.00,10.0,Calm,Calm,-,N/A,,Clear,0,2013-07-04 09:35:00
2:55 AM,64.4,35.6,34,30.00,10.0,NW,3.5,-,N/A,,Clear,320,2013-07-04 09:55:00
3:15 AM,59.0,32.0,36,30.00,10.0,NNE,3.5,-,N/A,,Clear,20,2013-07-04 10:15:00
3:35 AM,59.0,33.8,39,30.00,10.0,WNW,11.5,-,N/A,,Clear,290,2013-07-04 10:35:00
3:55 AM,66.2,33.8,30,30.00,10.0,WNW,13.8,-,N/A,,Clear,290,2013-07-04 10:55:00
4:15 AM,66.2,30.2,26,30.01,10.0,WNW,12.7,-,N/A,,Clear,290,2013-07-04 11:15:00
4:35 AM,64.4,28.4,26,30.00,10.0,WNW,13.8,-,N/A,,Clear,290,2013-07-04 11:35:00
4:55 AM,64.4,28.4,26,30.00,10.0,WNW,11.5,-,N/A,,Clear,300,2013-07-04 11:55:00
5:15 AM,62.6,28.4,27,30.01,10.0,WNW,10.4,-,N/A,,Clear,290,2013-07-04 12:15:00
5:35 AM,62.6,26.6,26,30.02,10.0,WNW,8.1,-,N/A,,Clear,290,2013-07-04 12:35:00
5:55 AM,60.8,28.4,29,30.02,10.0,NW,6.9,-,N/A,,Clear,310,2013-07-04 12:55:00
6:15 AM,57.2,28.4,33,30.02,10.0,West,6.9,-,N/A,,Clear,280,2013-07-04 13:15:00
6:35 AM,60.8,33.8,36,30.02,10.0,Calm,Calm,-,N/A,,Clear,0,2013-07-04 13:35:00
6:55 AM,64.4,30.2,28,30.02,10.0,NW,10.4,-,N/A,,Clear,310,2013-07-04 13:55:00
7:15 AM,66.2,32.0,28,30.02,10.0,NW,5.8,-,N/A,,Clear,310,2013-07-04 14:15:00
7:35 AM,64.4,35.6,34,30.02,10.0,Calm,Calm,-,N/A,,Clear,0,2013-07-04 14:35:00
7:55 AM,66.2,35.6,32,30.02,10.0,SE,3.5,-,N/A,,Clear,130,2013-07-04 14:55:00
8:15 AM,69.8,33.8,27,30.02,10.0,Calm,Calm,-,N/A,,Clear,0,2013-07-04 15:15:00
8:35 AM,71.6,33.8,25,30.02,10.0,NNE,4.6,-,N/A,,Clear,30,2013-07-04 15:35:00
8:55 AM,71.6,30.2,22,30.02,10.0,Calm,Calm,-,N/A,,Clear,0,2013-07-04 15:55:00
9:15 AM,73.4,30.2,20,30.02,10.0,NW,5.8,-,N/A,,Clear,320,2013-07-04 16:15:00
9:35 AM,73.4,33.8,23,30.01,10.0,NE,4.6,-,N/A,,Clear,40,2013-07-04 16:35:00
9:55 AM,75.2,33.8,22,30.01,10.0,NW,8.1,-,N/A,,Clear,320,2013-07-04 16:55:00
10:15 AM,77.0,33.8,21,30.00,10.0,NW,9.2,-,N/A,,Clear,320,2013-07-04 17:15:00
10:35 AM,78.8,33.8,20,30.00,10.0,WNW,9.2,-,N/A,,Clear,300,2013-07-04 17:35:00
10:55 AM,78.8,33.8,20,30.00,10.0,NW,8.1,-,N/A,,Clear,310,2013-07-04 17:55:00
11:15 AM,78.8,35.6,21,29.99,10.0,WNW,6.9,-,N/A,,Clear,300,2013-07-04 18:15:00
11:35 AM,78.8,35.6,21,29.99,10.0,NE,9.2,-,N/A,,Clear,50,2013-07-04 18:35:00
11:55 AM,80.6,35.6,20,29.98,10.0,East,5.8,-,N/A,,Clear,90,2013-07-04 18:55:00
12:15 PM,78.8,35.6,21,29.98,10.0,NE,5.8,-,N/A,,Clear,50,2013-07-04 19:15:00
12:35 PM,80.6,37.4,21,29.98,10.0,North,8.1,-,N/A,,Clear,360,2013-07-04 19:35:00
12:55 PM,82.4,37.4,20,29.97,10.0,NNE,8.1,-,N/A,,Clear,20,2013-07-04 19:55:00
1:15 PM,82.4,37.4,20,29.96,10.0,North,9.2,17.3,N/A,,Clear,360,2013-07-04 20:15:00
1:35 PM,84.2,37.4,19,29.96,10.0,WNW,15.0,19.6,N/A,,Clear,300,2013-07-04 20:35:00
1:55 PM,84.2,37.4,19,29.96,10.0,NNW,15.0,20.7,N/A,,Clear,340,2013-07-04 20:55:00
2:15 PM,82.4,37.4,20,29.95,10.0,NW,12.7,18.4,N/A,,Clear,320,2013-07-04 21:15:00
2:35 PM,84.2,37.4,19,29.94,10.0,NNW,9.2,-,N/A,,Clear,330,2013-07-04 21:35:00
2:55 PM,84.2,37.4,19,29.93,10.0,NNW,16.1,-,N/A,,Clear,340,2013-07-04 21:55:00
3:15 PM,84.2,37.4,19,29.93,10.0,North,15.0,19.6,N/A,,Clear,350,2013-07-04 22:15:00
3:35 PM,84.2,37.4,19,29.93,10.0,NNW,11.5,-,N/A,,Clear,340,2013-07-04 22:35:00
3:55 PM,84.2,37.4,19,29.92,10.0,NNW,9.2,-,N/A,,Clear,330,2013-07-04 22:55:00
4:15 PM,84.2,37.4,19,29.92,10.0,North,15.0,20.7,N/A,,Clear,360,2013-07-04 23:15:00
4:35 PM,82.4,37.4,20,29.91,10.0,North,11.5,-,N/A,,Clear,360,2013-07-04 23:35:00
4:55 PM,82.4,37.4,20,29.91,10.0,North,13.8,18.4,N/A,,Clear,350,2013-07-04 23:55:00
5:15 PM,80.6,37.4,21,29.90,10.0,NNW,10.4,-,N/A,,Clear,340,2013-07-05 00:15:00
5:35 PM,82.4,39.2,21,29.90,10.0,NNW,8.1,-,N/A,,Clear,330,2013-07-05 00:35:00
5:55 PM,82.4,39.2,21,29.89,10.0,NNW,16.1,-,N/A,,Clear,330,2013-07-05 00:55:00
6:15 PM,82.4,39.2,21,29.90,10.0,NNW,15.0,-,N/A,,Clear,330,2013-07-05 01:15:00
6:35 PM,80.6,39.2,23,29.90,10.0,NW,12.7,-,N/A,,Clear,320,2013-07-05 01:35:00
6:55 PM,80.6,39.2,23,29.89,10.0,NNW,12.7,-,N/A,,Clear,330,2013-07-05 01:55:00
7:15 PM,78.8,39.2,24,29.89,10.0,NNW,10.4,-,N/A,,Clear,330,2013-07-05 02:15:00
7:35 PM,78.8,37.4,23,29.89,10.0,NNW,8.1,-,N/A,,Clear,330,2013-07-05 02:35:00
7:55 PM,75.2,39.2,27,29.89,10.0,NNW,8.1,-,N/A,,Clear,330,2013-07-05 02:55:00
8:15 PM,73.4,37.4,27,29.89,10.0,NW,8.1,-,N/A,,Clear,320,2013-07-05 03:15:00
8:35 PM,73.4,37.4,27,29.89,10.0,NW,9.2,-,N/A,,Clear,320,2013-07-05 03:35:00
8:55 PM,71.6,37.4,29,29.90,10.0,WNW,8.1,-,N/A,,Clear,290,2013-07-05 03:55:00
9:15 PM,69.8,35.6,28,29.90,10.0,WNW,9.2,-,N/A,,Clear,290,2013-07-05 04:15:00
9:35 PM,69.8,35.6,28,29.91,10.0,WNW,8.1,-,N/A,,Clear,300,2013-07-05 04:35:00
9:55 PM,69.8,35.6,28,29.91,10.0,WNW,9.2,-,N/A,,Clear,290,2013-07-05 04:55:00
10:15 PM,69.8,35.6,28,29.91,10.0,WNW,8.1,-,N/A,,Clear,300,2013-07-05 05:15:00
10:35 PM,64.4,35.6,34,29.91,10.0,NNW,8.1,-,N/A,,Clear,330,2013-07-05 05:35:00
10:55 PM,62.6,35.6,37,29.91,10.0,NW,9.2,-,N/A,,Clear,320,2013-07-05 05:55:00
11:15 PM,60.8,35.6,39,29.91,10.0,NNW,9.2,-,N/A,,Clear,330,2013-07-05 06:15:00
11:35 PM,60.8,35.6,39,29.91,10.0,NW,8.1,-,N/A,,Clear,320,2013-07-05 06:35:00
11:55 PM,62.6,35.6,37,29.91,10.0,NNW,10.4,-,N/A,,Clear,330,2013-07-05 06:55:00